#timestamp,LO_Frequency,Hit,StdDev 
1501473615.1,286047000.0,N,1.1
1501473616.0,286047000.0,N,1.0
1501473635.8,286046999.9,N,1.0
1501473655.7,286046999.7,N,1.0
1501473675.5,286047002.6,N,1.1
1501473695.3,286047000.2,N,1.1
1501473715.2,286046999.8,N,1.1
1501473735.0,286047002.1,N,1.2
1501473735.9,286047002.1,N,1.1
1501473755.8,286047000.1,N,1.1
1501473775.6,286047000.1,N,1.1
1501473795.4,286047002.0,N,1.1
1501473815.3,286047002.1,N,1.1
1501473835.1,286047002.8,N,1.2
1501473855.9,286047001.7,N,1.2
1501473875.7,286047001.6,N,1.2
1501473895.5,286047002.2,N,1.1
1501473915.4,286047001.8,N,1.1
1501473935.2,286047001.8,N,1.1
1501473955.1,286047002.8,N,1.1
1501473956.0,286047002.8,N,1.0
1501473975.8,286047002.6,N,1.1
1501473995.6,286046999.7,N,1.1
1501474015.5,286047000.0,N,1.1
1501474035.3,286047002.5,N,1.1
1501474055.2,286047002.8,N,1.2
1501474075.9,286047000.3,N,1.2
1501474095.7,286047002.6,N,1.2
1501474115.6,286047001.9,N,1.2
1501474135.4,286047003.9,P,1.3
1501474155.3,286047000.1,N,1.6
1501474175.1,286046999.9,N,1.6
1501474176.0,286046999.9,N,1.5
1501474195.8,286047001.0,N,1.4
1501474215.7,286047000.9,N,1.3
1501474235.5,286047000.6,N,1.2
1501474255.4,286046999.0,N,1.3
1501474275.2,286047000.6,N,1.2
1501474295.0,286047000.8,N,1.2
1501474295.9,286047000.8,N,1.1
1501474315.8,286046998.2,N,1.3
1501474335.6,286046998.7,N,1.3
1501474355.4,286046998.6,N,1.4
1501474375.3,286046998.1,N,1.4
1501474395.1,286047001.1,N,1.4
1501474415.9,286046999.9,N,1.4
1501474435.7,286047000.2,N,1.3
1501474455.5,286047000.5,N,1.3
1501474475.4,286047001.1,N,1.3
1501474495.2,286046999.0,N,1.3
1501474515.1,286047000.3,N,1.2
1501474516.0,286047000.3,N,1.2
1501474535.8,286047000.0,N,1.2
1501474555.6,286046999.9,N,1.2
1501474575.5,286047001.2,N,1.2
1501474595.3,286047001.1,N,1.2
1501474615.2,286046998.1,N,1.2
1501474635.9,286047000.5,N,1.2
1501474655.7,286047000.9,N,1.2
1501474675.6,286047000.6,N,0.9
1501474695.4,286047002.8,N,1.1
1501474715.2,286047000.0,N,1.1
1501474735.1,286046999.8,N,1.1
1501474736.0,286046999.8,N,1.1
1501474755.8,286047001.0,N,1.1
1501474775.7,286047001.0,N,1.1
1501474795.5,286047000.4,N,1.0
1501474815.3,286047000.4,N,1.0
1501474835.2,286047000.9,N,1.0
1501474855.0,286046999.9,N,1.0
1501474855.9,286046999.9,N,1.0
1501474875.8,286047000.3,N,0.9
1501474895.6,286047002.7,N,1.0
1501474915.4,286047002.8,N,1.0
1501474935.3,286047002.7,N,1.1
1501474955.1,286047002.0,N,1.1
1501474975.9,286047002.1,N,1.1
1501474995.7,286047001.9,N,1.1
1501475015.5,286046999.8,N,1.1
1501475035.4,286047002.4,N,1.1
1501475055.2,286047002.1,N,1.1
1501475075.0,286047002.1,N,1.2
1501475076.0,286047002.1,N,1.2
1501475095.8,286047001.6,N,1.1
1501475115.6,286047002.5,N,1.2
1501475135.5,286047001.6,N,1.2
1501475155.3,286047002.6,N,1.0
1501475175.1,286046999.9,N,1.1
1501475195.9,286047000.7,N,1.1
1501475215.7,286047000.2,N,1.1
1501475235.6,286047000.6,N,1.1
1501475255.4,286047000.0,N,1.1
1501475275.2,286047000.3,N,1.0
1501475295.1,286047000.4,N,1.0
1501475296.0,286047000.4,N,1.0
1501475315.8,286047000.3,N,1.0
1501475335.7,286046998.1,N,1.2
1501475355.5,286046998.5,N,1.3
1501475375.3,286047001.0,N,1.3
1501475395.2,286046999.6,N,1.3
1501475415.0,286046996.6,N,1.5
1501475415.9,286046996.6,N,1.7
1501475435.8,286046999.6,N,1.6
1501475455.6,286046999.5,N,1.6
1501475475.4,286046997.2,N,1.7
1501475495.3,286046996.9,N,1.8
1501475515.1,286046999.5,N,1.7
1501475535.9,286046999.5,N,1.7
1501475555.7,286046997.1,N,1.8
1501475575.5,286046997.1,N,1.8
1501475595.4,286046997.1,N,1.8
1501475615.2,286046997.2,N,1.8
1501475635.1,286046997.6,N,1.8
1501475636.0,286046997.6,N,1.7
1501475655.8,286046995.7,N,1.7
1501475675.6,286046995.5,N,1.8
1501475695.5,286046995.0,N,1.7
1501475715.3,286046995.5,N,1.8
1501475735.2,286046995.5,N,1.8
1501475755.0,286046993.3,P,2.4
1501475755.9,286046993.3,N,2.3
1501475775.8,286046997.6,N,2.3
1501475795.6,286046997.9,N,2.3
1501475815.4,286046994.9,N,2.1
1501475835.3,286046994.9,N,2.0
1501475855.1,286046995.5,N,1.9
1501475875.9,286046995.1,N,1.8
1501475895.7,286046995.6,N,1.7
1501475915.5,286046993.8,P,0.9
1501475935.4,286046998.6,N,2.0
1501475955.2,286046998.3,N,2.0
1501475975.1,286046998.1,N,1.9
1501475976.0,286046998.1,N,1.8
1501475995.8,286046999.0,N,1.8
1501476015.6,286046998.7,N,1.7
1501476035.5,286046999.4,N,1.7
1501476055.3,286046998.6,N,1.7
1501476075.2,286046998.7,N,1.6
1501476095.0,286046998.7,N,1.5
1501476095.9,286046998.7,N,1.5
1501476115.7,286046999.0,N,1.5
1501476135.6,286046999.6,N,1.5
1501476155.4,286046999.5,N,1.4
1501476175.3,286046999.0,N,1.4
1501476195.1,286046998.7,N,1.4
1501476215.8,286046998.7,N,1.3
1501476235.7,286046999.3,N,1.3
1501476255.5,286046998.4,N,1.3
1501476275.4,286046999.5,N,1.3
1501476295.2,286046999.6,N,1.3
1501476315.0,286046997.4,N,1.3
1501476315.9,286046997.4,N,1.3
1501476335.8,286046996.9,N,1.3
1501476355.6,286046997.1,N,1.3
1501476375.5,286046999.6,N,1.3
1501476395.3,286046999.3,N,1.3
1501476415.1,286046996.7,N,1.3
1501476435.9,286046997.5,N,1.2
1501476455.7,286046997.5,N,0.8
1501476475.6,286046997.3,P,0.6
1501476495.4,286046998.4,N,0.5
1501476515.2,286047000.8,N,1.3
1501476535.1,286046998.9,N,1.1
1501476536.0,286046998.9,N,1.0
1501476555.8,286046998.8,N,1.0
1501476575.7,286046998.7,N,0.9
1501476595.5,286046999.0,N,0.9
1501476615.3,286046999.3,N,0.8
1501476635.2,286046998.8,N,0.8
1501476655.0,286046998.8,N,0.8
1501476655.9,286046998.8,N,0.7
1501476675.8,286046998.7,N,0.7
1501476695.6,286046998.3,N,0.7
1501476715.4,286046998.8,N,0.7
1501476735.3,286046999.5,N,0.7
1501476755.1,286046998.4,N,0.7
1501476775.8,286046998.8,N,0.6
1501476795.7,286046999.0,N,0.6
1501476815.5,286046999.2,N,0.6
1501476835.4,286046999.0,N,0.6
1501476855.2,286046999.4,N,0.6
1501476875.0,286046999.0,N,0.6
1501476875.9,286046999.0,N,0.6
1501476895.8,286046999.1,N,0.6
1501476915.6,286046999.2,N,0.6
1501476935.5,286046999.5,N,0.6
1501476955.3,286046999.6,N,0.6
1501476975.1,286046999.5,N,0.6
1501476995.9,286046996.5,P,1.2
1501477015.7,286047001.0,N,1.8
1501477035.6,286047000.7,N,1.8
1501477055.4,286047001.0,N,1.7
1501477075.3,286047000.9,N,1.7
1501477095.1,286047000.3,N,1.5
1501477096.0,286047000.3,N,1.4
1501477115.8,286046999.9,N,1.4
1501477135.7,286046999.7,N,1.3
1501477155.5,286047000.3,N,1.2
1501477175.4,286046999.9,N,1.2
1501477195.2,286047002.3,N,1.3
